STARLINK-32628 (62122 NORAD) Tracking and Keplerian Element Data

This shows tracking and keplerian element data for the satellite.

Feedback or suggestion? Click here.




ElementValue
Catalog62122
NameSTARLINK-32628
Epoch Orbit1189
Epoch Day34.91139915
Epoch Year2025
RAAN229.7783
Inclination43.0006
Eccentricity0.0002123
Argument of Perigee286.3028
Mean Anonmoly73.7595
Mean Motion15.40684039
Decay Rate-3.259E-05
L11 62122U 24222J 25034.91139915 -.00003259 00000+0 -70807-4 0 9993
L22 62122 43.0006 229.7783 0002123 286.3028 73.7595 15.40684039 11898



Live tracking and technical data element details for STARLINK-32628 (NORAD 62122). STARLINK-32628 can be tracked NOW for your location showing map with azimuth and elevation plus other details from your city location.







IsCatalogInMostPopularTable: catalog: 62122, numindb: 13
Update: records affected: 1



GetName: 62122 STARLINK-32628

Hit Count: updated at: Sun, 18 May 2025 22:36:58 GMT